Location: Anuling
(14.1239°N, 120.8922°E)
Time: 04:31:47
(UTC+00:00)

Delta 2 Rocket - Visible Passes

Search period start: 21 April 2026 00:00
Search period end: 01 May 2026 00:00
Orbit: 890 x 1676 km, 26.4° (Epoch: 20 April)

Date Brightness Start Highest point End Pass type
(mag) Time Alt. Az. Time Alt. Az. Time Alt. Az.
21 Apr 5.5 12:10:16 10° SW 12:16:25 36° S 12:16:25 36° S visible
21 Apr 5.9 18:20:14 40° N 18:20:14 40° N 18:28:43 10° ENE visible
21 Apr 5.5 20:11:23 11° WNW 20:20:50 52° NNE 20:29:06 10° E visible
22 Apr 5.1 12:15:19 10° SW 12:22:15 46° S 12:22:15 46° S visible
22 Apr 5.8 18:25:10 41° N 18:25:33 41° N 18:34:30 10° ENE visible
22 Apr 5.3 20:16:32 10° WNW 20:26:26 60° NNE 20:34:52 10° E visible
23 Apr 5.9 10:24:34 10° S 10:29:54 19° SSE 10:35:50 10° ESE visible
23 Apr 4.9 12:20:30 10° SW 12:28:10 59° S 12:28:10 59° S visible
23 Apr 7.2 16:39:03 12° ENE 16:39:03 12° ENE 16:39:32 10° ENE visible
23 Apr 5.7 18:30:13 43° N 18:31:15 44° N 18:40:19 10° ENE visible
23 Apr 5.1 20:21:54 10° WNW 20:31:59 70° NNE 20:40:34 10° ESE visible
24 Apr 5.6 10:29:07 10° SSW 10:35:15 25° SSE 10:42:15 10° E visible
24 Apr 4.7 12:25:48 10° WSW 12:34:07 74° SSE 12:34:07 74° SSE visible
24 Apr 7.1 14:25:08 10° W 14:25:21 11° W 14:25:21 11° W visible
24 Apr 7.1 16:44:11 13° ENE 16:44:11 13° ENE 16:45:10 10° ENE visible
24 Apr 5.7 18:35:21 45° NNW 18:36:55 47° N 18:46:09 10° E visible
24 Apr 5.0 20:27:16 10° WNW 20:37:28 82° NNE 20:46:09 10° ESE visible
25 Apr 5.3 10:33:55 10° SSW 10:40:34 33° SSE 10:48:20 10° E visible
25 Apr 4.6 12:31:14 10° WSW 12:39:40 89° SSE 12:40:05 84° ENE visible
25 Apr 7.1 14:30:55 10° W 14:31:19 12° W 14:31:19 12° W visible
25 Apr 7.1 16:49:27 15° ENE 16:49:27 15° ENE 16:50:52 10° ENE visible
25 Apr 5.5 18:40:38 47° NNW 18:42:33 52° NNE 18:51:56 10° E visible
25 Apr 4.9 20:32:40 10° WNW 20:42:54 85° SSW 20:51:40 10° ESE visible
26 Apr 5.0 10:38:55 10° SW 10:45:54 42° SSE 10:54:11 10° E visible
26 Apr 4.8 12:36:46 10° WSW 12:45:08 77° NNW 12:46:02 72° NNE visible
26 Apr 7.0 14:36:44 10° W 14:37:15 12° W 14:37:15 12° W visible
26 Apr 7.0 16:54:51 16° ENE 16:54:51 16° ENE 16:56:38 10° ENE visible
26 Apr 5.4 18:46:03 52° NNW 18:48:08 59° NNE 18:57:41 10° E visible
26 Apr 4.9 20:38:07 10° WNW 20:48:17 71° SSW 20:57:03 10° SE visible
27 Apr 4.7 10:44:04 10° SW 10:51:13 54° SSE 10:59:52 10° ENE visible
27 Apr 5.0 12:42:24 10° W 12:50:39 66° NNW 12:51:54 60° NNE visible
27 Apr 7.0 14:42:34 10° WNW 14:43:08 12° WNW 14:43:08 12° WNW visible
27 Apr 6.9 17:00:24 17° ENE 17:00:24 17° ENE 17:02:25 10° ENE visible
27 Apr 5.2 18:51:36 57° NNW 18:53:39 68° NNE 19:03:22 10° ESE visible
27 Apr 5.1 20:43:38 10° WNW 20:53:37 58° SSW 21:02:19 10° SE visible
28 Apr 4.5 10:49:22 10° SW 10:56:36 68° SSE 11:05:26 10° ENE visible
28 Apr 5.2 12:48:08 10° W 12:56:13 56° NNW 12:57:42 51° NNE visible
28 Apr 7.1 14:48:23 10° WNW 14:48:54 12° WNW 14:48:54 12° WNW visible
28 Apr 6.9 17:06:06 18° ENE 17:06:06 18° ENE 17:08:13 10° E visible
28 Apr 5.0 18:57:18 65° NW 18:59:07 79° NNE 19:08:57 10° ESE visible
28 Apr 5.3 20:49:18 10° W 20:58:57 47° SSW 21:07:26 10° SE visible
29 Apr 4.5 10:54:47 10° WSW 11:02:01 84° SSE 11:10:53 10° ENE visible
29 Apr 5.4 12:53:55 10° W 13:01:50 49° NNW 13:03:22 45° NNE visible
29 Apr 7.1 14:54:10 10° WNW 14:54:34 11° WNW 14:54:34 11° WNW visible
29 Apr 6.9 17:11:54 18° E 17:11:54 18° E 17:14:00 10° E visible
29 Apr 4.9 19:03:07 72° WNW 19:04:33 89° SSW 19:14:27 10° ESE visible
29 Apr 5.5 20:55:06 10° W 21:04:15 37° SSW 21:12:26 10° SSE visible
30 Apr 4.6 11:00:20 10° WSW 11:07:30 80° NNW 11:16:18 10° ENE visible
30 Apr 5.5 12:59:46 10° W 13:07:30 44° N 13:08:54 41° NNE visible
30 Apr 7.1 14:59:54 10° WNW 15:00:05 11° WNW 15:00:05 11° WNW visible
30 Apr 6.9 17:17:49 17° E 17:17:49 17° E 17:19:44 10° E visible
30 Apr 4.9 19:09:02 72° WSW 19:09:55 76° SSW 19:19:49 10° ESE visible
30 Apr 5.8 21:01:07 10° W 21:09:34 30° SSW 21:17:16 10° SSE visible
